Location: Laan Hart van Zuid
(52.2563°N, 6.7904°E)
Time: 14:47:20
(UTC+02:00)

BlueWalker 3 - Pass Details

Date: 01 May 2024
Orbit: 482 x 494 km, 53.2° (Epoch: 20 May)

Event Time Altitude Azimuth Distance (km) Brightness Sun altitude
Rises 23:44:44 0° 283° (WNW) 2,580 6.1 -18.6°
Reaches altitude 10° 23:47:48 10° 256° (WSW) 1,695 4.8 -18.8°
Enters shadow 23:49:32 14° 229° (SW) 1,485 4.2 -18.9°
